DateTimeUTC,F1_A11,F1_S11,BsB_S11,BsG_S11,BsR_S11,BbsB_S11,BbsG_S11,BbsR_S11,BaB_A11,BaG_A11,BaR_A11,Tu_S11,T_S11,Uu_S11,U_S11,P_S11,T1_A11
2021-03-28T19:00:00Z,00000200,21000000,,,,,,,0000.29,0000.23,0000.48,17.0,24.3,,00.0,0637.3,31.0
2021-03-28T19:01:00Z,00000200,21000000,,,,,,,-000.13,0000.04,-000.26,17.0,24.4,,00.0,0637.3,31.0
2021-03-28T19:02:00Z,00000200,21000000,,,,,,,-000.13,-000.23,-000.26,17.0,24.4,,00.0,0637.3,31.0
2021-03-28T19:03:00Z,00000200,61000000,,,,,,,0000.52,0000.61,0000.55,17.0,24.4,,00.0,0637.3,30.9
2021-03-28T19:04:00Z,00000200,41000000,0000.94,0000.45,0000.86,-000.10,0000.35,0000.18,0000.79,0000.04,0000.14,17.1,24.2,,00.0,0638.2,30.9
2021-03-28T19:05:00Z,00000200,01000000,0001.59,0000.59,0000.19,-000.31,0000.21,-000.27,-000.15,0000.35,0000.44,17.1,24.2,,00.0,0638.4,30.9
2021-03-28T19:06:00Z,00000200,01000000,0000.99,0000.61,0000.41,-000.27,0000.20,0000.10,0000.18,0000.10,0000.07,17.1,24.1,,00.0,0638.4,30.9
2021-03-28T19:07:00Z,00000200,01000000,0001.55,0000.76,0000.42,-000.17,0000.25,0000.03,0000.46,0000.55,0000.09,17.1,24.1,,00.0,0638.4,30.9
2021-03-28T19:08:00Z,00000200,01000000,0001.16,0000.65,0000.34,0000.00,0000.11,-000.03,0000.25,-000.02,0000.04,17.0,24.1,,00.0,0638.4,30.9
2021-03-28T19:09:00Z,00000200,01000000,0000.87,0000.78,0000.24,-000.11,-000.01,0000.13,0000.32,0000.06,0000.52,17.0,24.1,,00.0,0638.4,30.9
2021-03-28T19:10:00Z,00000200,01000000,0001.22,0000.58,0000.63,0000.04,0000.05,0000.28,0000.26,0000.37,0000.09,17.0,24.0,,00.0,0638.4,30.9
2021-03-28T19:11:00Z,00000200,01000000,0000.82,0000.46,0000.62,0000.02,0000.09,-000.10,0000.31,0000.31,0000.15,17.0,24.0,,00.0,0638.4,30.9
2021-03-28T19:12:00Z,00000200,01000000,0000.78,0000.75,0000.39,0000.55,0000.14,0000.23,0000.63,0000.62,0000.62,17.0,24.0,,00.0,0638.4,30.9
2021-03-28T19:13:00Z,00000200,01000000,0001.68,0000.82,0000.48,0000.14,0000.18,0000.18,0000.33,0000.05,-000.04,17.1,24.0,,00.0,0638.4,30.9
2021-03-28T19:14:00Z,00000200,01000000,0000.63,0000.85,0000.68,0000.30,-000.18,-000.09,0000.18,0000.76,0000.64,17.2,24.1,,00.0,0638.4,31.0
2021-03-28T19:15:00Z,00000200,01000000,0001.35,0000.53,0000.41,0000.14,0000.11,-000.06,0000.14,-000.05,0000.05,17.3,24.1,,00.0,0638.4,31.0
2021-03-28T19:16:00Z,00000200,01000000,0000.96,0000.64,0000.33,-000.25,0000.22,-000.06,0000.39,0000.18,0000.13,17.3,24.1,,00.0,0638.4,30.9
2021-03-28T19:17:00Z,00000200,01000000,0000.92,0000.72,0000.48,0000.16,0000.22,0000.10,0000.22,0000.41,-000.17,17.3,24.2,,00.0,0638.4,30.9
2021-03-28T19:18:00Z,00000200,01000000,0001.19,0000.60,0000.48,0000.01,0000.07,-000.10,0000.43,0000.23,0000.47,17.3,24.1,,00.0,0638.4,30.9
2021-03-28T19:19:00Z,00000200,01000000,0001.18,0000.96,0000.59,-000.21,0000.11,0000.05,0000.08,0000.62,0000.20,17.3,24.1,,00.0,0638.4,30.9
2021-03-28T19:20:00Z,00000200,01000000,0001.15,0000.72,0000.26,0000.69,-000.04,-000.04,0000.53,-000.23,0000.35,17.2,24.1,,00.0,0638.4,30.9
2021-03-28T19:21:00Z,00000200,01000000,0001.30,0000.86,0000.29,-000.13,-000.02,-000.01,0000.35,0000.29,0000.26,17.2,24.1,,00.0,0638.4,30.9
2021-03-28T19:22:00Z,00000200,01000000,0000.40,0000.72,0000.48,0000.04,0000.18,-000.02,0000.00,0000.27,0000.15,17.2,24.1,,00.0,0638.4,30.9
2021-03-28T19:23:00Z,00000200,01000000,0000.77,0000.77,0000.34,-000.00,0000.14,-000.08,0000.39,0000.59,0000.24,17.2,24.1,,00.0,0638.4,30.9
2021-03-28T19:24:00Z,00000200,01000000,0001.13,0000.75,0000.49,-000.19,0000.22,0000.02,0000.52,0000.05,0000.33,17.1,24.1,,00.0,0638.4,30.9
2021-03-28T19:25:00Z,00000200,01000000,0001.50,0000.73,0000.49,0000.01,0000.21,0000.29,0000.15,0000.48,0000.32,17.1,24.0,,00.0,0638.4,30.9
2021-03-28T19:26:00Z,00000200,01000000,0000.78,0000.57,0000.47,0000.06,0000.12,0000.21,0000.52,0000.34,-000.09,17.1,24.0,,00.0,0638.4,30.9
2021-03-28T19:27:00Z,00000200,01000000,0001.20,0000.64,0000.25,-000.09,0000.24,-000.00,0000.31,0000.31,0000.30,17.1,24.0,,00.0,0638.4,30.9
2021-03-28T19:28:00Z,00000200,01000000,0001.37,0000.84,0000.22,0000.12,0000.29,-000.00,0000.43,0000.46,0000.74,17.2,24.0,,00.0,0638.4,31.0
2021-03-28T19:29:00Z,00000200,01000000,0001.30,0000.73,0000.61,-000.47,0000.07,0000.32,0000.55,0000.48,0000.05,17.3,24.1,,00.0,0638.4,31.0
2021-03-28T19:30:00Z,00000200,01000000,0001.29,0000.73,0000.44,0000.28,0000.09,0000.03,0000.07,0000.58,0000.26,17.4,24.2,,00.0,0638.4,31.0
2021-03-28T19:31:00Z,00000200,01000000,0000.56,0000.79,0000.47,-000.31,0000.04,0000.01,0000.44,0000.19,0000.64,17.5,24.2,,00.0,0638.4,31.0
2021-03-28T19:32:00Z,00000200,01000000,0001.03,0000.71,0000.28,0000.16,0000.15,0000.08,0000.59,0000.38,0000.20,17.6,24.3,,00.0,0638.5,31.0
2021-03-28T19:33:00Z,00000200,01000000,0000.39,0000.71,0000.31,-000.56,0000.09,-000.19,0000.39,0000.19,0000.42,17.7,24.3,,00.0,0638.5,31.0
2021-03-28T19:34:00Z,00000200,01000000,0000.95,0000.23,0000.31,-000.12,0000.11,0000.02,0000.60,0000.48,-000.03,17.7,24.4,,00.0,0638.5,31.0
2021-03-28T19:35:00Z,00000200,01000000,0000.97,0000.69,0000.43,0000.13,0000.02,0000.07,0000.02,0000.41,0000.37,17.8,24.4,,00.0,0638.5,31.0
2021-03-28T19:36:00Z,00000200,01000000,0000.99,0000.77,0000.52,-000.08,-000.09,0000.05,0000.34,0000.00,0000.15,17.9,24.4,,00.0,0638.5,31.0
2021-03-28T19:37:00Z,00000200,01000000,0001.02,0000.81,0000.45,-000.36,0000.20,0000.13,0000.30,0000.51,0000.09,17.9,24.4,,00.0,0638.4,31.0
2021-03-28T19:38:00Z,00000200,01000000,0001.12,0000.81,0000.59,-000.20,-000.02,0000.25,0000.12,-000.01,0000.40,17.8,24.5,,00.0,0638.5,31.0
2021-03-28T19:39:00Z,00000200,01000000,0000.49,0000.64,0000.49,0000.20,0000.21,0000.15,0000.29,0000.30,0000.06,17.8,24.4,,00.0,0638.5,31.0
2021-03-28T19:40:00Z,00000200,01000000,0000.86,0000.62,0000.47,0000.04,-000.09,0000.15,0000.40,0000.48,0000.25,17.7,24.4,,00.0,0638.5,31.0
2021-03-28T19:41:00Z,00000200,01000000,0001.28,0000.79,0000.47,0000.00,0000.24,-000.01,0000.22,0000.33,0000.11,17.6,24.4,,00.0,0638.5,31.0
2021-03-28T19:42:00Z,00000200,01000000,0001.35,0000.61,0000.22,-000.06,-000.06,0000.03,0000.36,0000.11,0000.44,17.6,24.4,,00.0,0638.5,31.0
2021-03-28T19:43:00Z,00000200,01000000,0001.45,0000.49,0000.19,0000.21,0000.16,-000.07,0000.39,0000.45,0000.19,17.5,24.4,,00.0,0638.5,30.9
2021-03-28T19:44:00Z,00000200,01000000,0000.95,0000.68,0000.32,0000.13,0000.21,-000.01,0000.28,0000.38,0000.10,17.5,24.4,,00.0,0638.5,30.9
2021-03-28T19:45:00Z,00000200,01000000,0000.84,0000.73,0000.48,-000.05,0000.02,-000.04,0000.10,-000.18,0000.24,17.5,24.3,,00.0,0638.5,30.9
2021-03-28T19:46:00Z,00000200,01000000,0001.12,0000.68,0000.51,-000.24,0000.16,0000.15,0000.62,0000.52,0000.25,17.4,24.3,,00.0,0638.5,30.9
2021-03-28T19:47:00Z,00000200,01000000,0001.38,0000.99,0000.22,0000.12,0000.20,0000.16,0000.47,0000.26,0000.03,17.4,24.3,,00.0,0638.6,30.9
2021-03-28T19:48:00Z,00000200,01000000,0000.98,0000.63,0000.61,0000.36,-000.12,-000.01,0000.33,0000.27,0000.50,17.3,24.3,,00.0,0638.5,30.9
2021-03-28T19:49:00Z,00000200,01000000,0001.10,0000.68,0000.08,0000.38,0000.14,0000.22,-000.13,0000.17,0000.25,17.3,24.2,,00.0,0638.6,30.9
2021-03-28T19:50:00Z,00000200,01000000,0001.52,0000.70,0000.46,-000.03,-000.23,0000.20,0000.56,0000.35,0000.28,17.3,24.2,,00.0,0638.6,30.9
2021-03-28T19:51:00Z,00000200,01000000,0001.11,0000.66,0000.69,-000.50,-000.05,-000.11,0000.38,0000.60,0000.08,17.2,24.2,,00.0,0638.5,30.9
2021-03-28T19:52:00Z,00000200,01000000,0000.94,0000.88,0000.55,0000.13,0000.18,0000.23,0000.39,0000.17,0000.24,17.2,24.2,,00.0,0638.5,30.9
2021-03-28T19:53:00Z,00000200,01000000,0000.84,0000.61,0000.55,-000.25,0000.13,0000.15,0000.38,0000.11,0000.36,17.1,24.2,,00.0,0638.5,30.9
2021-03-28T19:54:00Z,00000200,01000000,0000.95,0000.86,0000.48,-000.24,-000.07,0000.03,0000.58,0000.47,0000.32,17.1,24.1,,00.0,0638.5,30.9
2021-03-28T19:55:00Z,00000200,01000000,0000.65,0000.90,0000.55,0000.14,-000.04,-000.05,0000.28,0000.38,0000.01,17.1,24.1,,00.0,0638.5,30.9
2021-03-28T19:56:00Z,00000200,01000000,0000.49,0000.53,0000.45,-000.22,-000.01,-000.01,0000.22,0000.07,0000.38,17.1,24.1,,00.0,0638.5,30.9
2021-03-28T19:57:00Z,00000200,41000000,,,,,,,0000.23,0000.68,0000.34,17.1,24.1,,00.0,0638.6,30.9
2021-03-28T19:58:00Z,00000200,61000000,,,,,,,-000.03,-000.35,-000.15,16.9,24.3,,00.0,0637.6,30.9
2021-03-28T19:59:00Z,00000200,21000000,,,,,,,-000.33,0000.27,-000.30,16.9,24.4,,00.0,0637.5,30.9
